Location: Baia Mare
(47.6567°N, 23.5850°E)
Time: 20:30:47
(UTC+03:00)

ISS - Pass Details

Date: 30 September 2018
Orbit: 403 x 408 km, 51.6° (Epoch: 23 October)

Event Time Altitude Azimuth Distance (km) Brightness Sun altitude
Rises 20:54:20 0° 281° (W) 2,339 1.7 -18.6°
Reaches altitude 10° 20:56:31 10° 289° (WNW) 1,477 0.3 -19.0°
Maximum altitude 20:59:39 39° 0° (N) 631 -2.8 -19.5°
Enters shadow 21:00:05 37° 22° (NNE) 657 -2.9 -19.6°
